Sunday, October 26, 2014
01:08 UTC
  |  Log In   |  Register Free
Airport Search:

Carmi Municipal Airport
(KCUL)

Carmi Municipal Airport Diagram
No Airport Diagram Available

FAA data valid effective September 18, 2014 - November 13, 2014 (unless otherwise noted).

 
 
 
 
 
 
 
 
 
 
 
 
 
 

Current Aviation Weather for Carmi Municipal Airport (KCUL)

The most recent METAR observation for KCUL was updated at: 0012
METAR Summary (Translated METAR)
KCUL
252355Z AUTO 00000KT 10SM CLR 19/13 A2999 RMK AO2 T01880130 10278 20185
KFWC
252355Z AUTO 00000KT 10SM CLR 17/13 A2999 RMK AO1 T01670129 10266 20166
(22.1 nm NW from KCUL)
KHSB
252355Z AUTO 00000KT 10SM CLR 18/13 A3002 RMK AO2 T01820125 10263 20179
(26.2 nm SW from KCUL)
TAF
No TAF information found within 50 nm of KCUL
  Airport Weather Conditions for KCUL

 Current Weather at CUL
66° F
Fair
North winds at 0.0 mph
CUL NOAA Radar

Pressure: 29.99 in
Humidity: 67%
Wind: Calm
Dew Point: 54.3°F
Visibility: 10.00 mi


Airport Weather Forecast for KCUL

Translated METAR and TAF for KCUL
Translated METAR for KCUL (0103 UTC 26 October 2014)
found at http://aviationweather.gov/adds/metars/
 
METAR text: KCUL 260055Z AUTO 00000KT 10SM CLR 16/14 A3000 RMK AO2 T01640135
Conditions at: KCUL (CARMI MUNI , IL, US) observed 0055 UTC 26 October 2014
Temperature: 16.4°C (62°F)
Dewpoint: 13.5°C (56°F) [RH = 83%]
Pressure (altimeter): 30.00 inches Hg (1016.0 mb)
Winds: calm
Visibility: 10 or more miles (16+ km)
Ceiling: at least 12,000 feet AGL
Clouds: sky clear below 12,000 feet AGL
Weather: automated observation with no human augmentation;
there may or may not be significant weather present at this time
Translated TAF for KCUL

There is no translated TAF available for this airport

Find All Airport Services Find A Hotel Find A Rental Car Find A Golf Course Find A Restaurant $100 Hamburger



FBO's on the Field
FBO Company Facility Photos Services Transportation Aviation Fuel Prices: Prices include tax
Catering Weather Repair Courtesy Rental Type 100LL JetA JetA+ MOGAS 8087
 
Carmi Municipal Airport

This FBO has not yet been rated
FS:Shell
Last Updated: Oct-07
Login to update fuel prices
SS:
Contact Carmi Municipal AirportMore FBO Information
 
Carmi Municipal Airport

This FBO has not yet been rated
FS:Shell
Last Updated: Oct-03
Login to update fuel prices
SS:
Contact Carmi Municipal AirportMore FBO Information
 
Add another FBO Facility Photos Catering Weather Repair Courtesy Rental Type 100LL JetA JetA+ MOGAS 8087
Services Transportation Aviation Fuel Prices: Prices include tax


model-print
model-print
model-print
model-print